Regional Weather Roundup
Issued by NWS Charleston, WV

Home | Current Version | Previous Version | Text Only | Print | Product List | Glossary On
Versions: 1 2 3 4 5 6 7 8 9 10 11 12 13 14 15 16 17 18 19 20 21 22 23 24 25 26 27 28 29 30 31 32 33 34 35 36 37 38 39 40 41 42 43 44 45 46 47 48 49 50
000
ASUS41 KRLX 260710
RWRRLX
Regional Weather Roundup
National Weather Service Charleston WV
300 AM EDT SUN MAY 26 2019

Note: "fair" indicates few or no clouds below 12,000 feet with no
significant weather and/or obstructions to visibility.

WVZ003-260800-
Northern Panhandle of West Virginia

CITY           SKY/WX    TMP DP  RH WIND       PRES   REMARKS
WHEELING       FAIR      66  63  90 SW3       30.04S
$$

WVZ009-260800-
Northwest West Virginia

CITY           SKY/WX    TMP DP  RH WIND       PRES   REMARKS
PARKERSBURG    FAIR      67  63  87 CALM      30.08F
$$

WVZ006-260800-
Western West Virginia

CITY           SKY/WX    TMP DP  RH WIND       PRES   REMARKS
HUNTINGTON     FAIR      68  65  90 SW3       30.07S
$$

WVZ015-260800-
West Central West Virginia

CITY           SKY/WX    TMP DP  RH WIND       PRES   REMARKS
CHARLESTON     FAIR      68  66  93 S3        30.08S
$$

WVZ022-031-260800-
North Central West Virginia

CITY           SKY/WX    TMP DP  RH WIND       PRES   REMARKS
MORGANTOWN     MOCLDY    66  65  96 S3        30.07S FOG
CLARKSBURG     MOCLDY    69  65  86 S3        30.07S
BUCKHANNON     MOCLDY    66  66 100 S3        30.10S FOG
$$

WVZ025-035-042-045-260800-
Southern West Virginia

CITY           SKY/WX    TMP DP  RH WIND       PRES   REMARKS
BECKLEY        FAIR      64  61  90 CALM      30.17S
LOGAN          FAIR      70  64  83 CALM      30.12S
PINEVILLE      FAIR      64  64  97 MISG      30.18F FOG
BLUEFIELD      FAIR      64  60  87 W7        30.20S
LEWISBURG      FAIR      62  61  97 CALM      30.16F
$$

WVZ047-260800-
Northern Mountains of West Virginia

CITY           SKY/WX    TMP DP  RH WIND       PRES   REMARKS
ELKINS         FAIR      65  62  90 CALM      30.12F
$$

WVZ052-260800-
Eastern Panhandle of West Virginia

CITY           SKY/WX    TMP DP  RH WIND       PRES   REMARKS
MARTINSBURG    FAIR      68  68 100 S3        30.00S
PETERSBURG     FAIR      66  66  99 SE3       30.04F FOG
$$

Southeast Ohio/Northeast Kentucky

CITY           SKY/WX    TMP DP  RH WIND       PRES   REMARKS
ATHENS         FAIR      64  64 100 CALM      30.06S
ASHLAND        MOCLDY    66  65  96 CALM      30.07F
$$



USA.gov is the U.S. government's official web portal to all federal, state and local government web resources and services.